sat.trackr.live / text

‹ back to catalog

HXMT (HUIYAN)

NORAD 42758 · 2017-034A

PAYLOAD ACTIVE UNKNOWN

§ Identity

Operator
Country
PRC
Launch date
2017-06-15
Launch site
JSC
Launch vehicle
Mass (kg)
RCS (m²)

Purposes: science

External: N2YO · Heavens-Above · Gunter

§ Orbital elements

Epoch: 2026-09-20T03:54:22.798368Z

Period
94.79 min
Inclination
43.0153°
Eccentricity
0.0030855
Mean motion
15.19167711 rev/d
Perigee alt
487.1 km
Apogee alt
529.6 km
Semi-major
6,886.5 km
B*
1.5981e-4
RAAN
13.9046°
Arg perigee
25.9870°
Mean anomaly
334.2521°
Rev number
51,210

§ Raw data

HXMT (HUIYAN)1 42758U 17034A   26263.16276387  .00003216  00000+0  15981-3 0  99982 42758  43.0153  13.9046 0030855  25.9870 334.2521 15.19167711512107

JSON: /api/v1/satellites/42758 · /tle

For live sub-satellite position, see the globe view (requires WebGL).

§ Visibility from observer

Set your observer location to see the next 7 days of passes ≥ 10°. The values pass through the URL so the page stays shareable.

No JS? Fill the form by hand. The geolocation button needs JavaScript.

§ Radio — SatNOGS DB

ModeDescriptionDownlinkUplink
FM FM downlink 2.216 GHz

1 transmitter · refreshed weekly from db.satnogs.org